{"data":{"norad_id":56429,"intl_designator":"2023-061BH","name":"STARLINK-6264","alt_names":[],"object_type":"PAYLOAD","status":"ACTIVE","operator":null,"country":"US","launch_date":"2023-05-04","launch_site_code":"AFETR","launch_vehicle":null,"mission":null,"orbit_class":"UNKNOWN","rcs_meters":null,"size_class":null,"mass_kg":null,"dimensions":null,"purposes":["comms"],"wikipedia_slug":null,"has_3d_model":false,"image_url":null,"decayed_at":null,"tle_current":{"epoch":"2026-05-25T04:10:28.327872Z","epoch_age_seconds":56544,"freshness":"FRESH","line1":"1 56429U 23061BH  26145.17393898  .00000372  00000+0  23053-4 0  9992","line2":"2 56429  43.0036 107.8859 0001437 264.2393  95.8295 15.27574165168653","mean_motion":15.27574165,"eccentricity":0.0001437,"inclination_deg":43.0036,"raan_deg":107.8859,"arg_perigee_deg":264.2393,"mean_anomaly_deg":95.8295,"bstar":2.3053e-5,"rev_number":16865,"period_min":94.267108792063,"perigee_km":482.08061323165,"apogee_km":484.05252313715,"semimajor_km":6861.2035681844,"source":"CELESTRAK","updated_at":"2026-05-25T13:38:18.065446Z"}}}